Location: *
(48.4333°N, 5.0333°W)
Time: 08:01:10
(UTC+00:00)

Ariane Rocket - Visible Passes

Search period start: 11 August 2020 00:00
Search period end: 21 August 2020 00:00
Orbit: 759 x 771 km, 98.7° (Epoch: 10 August)

Date Brightness Start Highest point End Pass type
(mag) Time Alt. Az. Time Alt. Az. Time Alt. Az.
11 Aug 5.9 21:46:13 10° W 21:47:08 10° W 21:48:05 10° WNW visible
12 Aug 5.2 21:05:57 10° SW 21:09:52 22° W 21:13:49 10° NW visible
13 Aug 4.1 20:27:58 10° S 20:32:49 45° W 20:37:41 10° NNW visible
14 Aug 5.7 21:33:08 10° WSW 21:35:37 14° W 21:38:07 10° WNW visible
15 Aug 4.9 20:54:06 10° SSW 20:58:25 28° W 21:02:45 10° NW visible
16 Aug 3.7 20:16:27 10° S 20:21:26 57° W 20:26:25 10° NNW visible
17 Aug 5.5 21:20:49 10° SW 21:24:06 17° W 21:27:25 10° NW visible
18 Aug 4.5 20:42:23 10° SSW 20:46:59 35° W 20:51:36 10° NNW visible
19 Aug 3.3 20:05:01 10° S 20:10:03 72° WSW 20:15:07 10° NNW visible
20 Aug 5.3 21:08:47 10° SW 21:12:38 22° W 21:16:30 10° NW visible
